Temperature
18 17 17 17 17 17 17 17 17 17 17 17 17 17 17 17 17 17 17 16 16 16 16 16 16 16 16 16 16 15 15 15 15 15 15 15 15 15 14 14 14 14 14
18 17 17 17 17 17 17 17 17 17 17 17 17 17 17 17 16 16 16 16 16 16 16 16 16 16 16 16 15 15 15 15 15 15 15 15 14 14 14 14 14 14 14
18 17 17 17 16 16 17 17 17 17 17 17 17 17 17 16 16 16 16 16 16 16 16 16 16 16 16 15 15 15 15 15 15 15 15 15 14 14 14 14 13 13 13
18 17 17 16 16 16 16 17 17 17 17 17 17 17 16 16 16 16 16 16 16 16 16 15 15 15 15 15 15 15 15 15 15 15 15 14 14 14 14 13 13 13 13
17 17 17 16 16 16 16 16 17 17 17 17 16 16 16 16 16 16 16 16 16 16 15 15 15 15 15 15 15 15 14 14 14 14 14 14 14 14 13 13 13 13 13
17 17 16 16 16 16 16 16 16 16 16 16 16 16 16 16 16 16 16 16 15 15 15 15 15 15 15 15 14 14 14 14 14 14 14 14 13 13 13 13 13 13 12
17 16 16 16 16 16 16 16 16 16 16 16 16 16 16 16 16 16 16 15 15 15 15 15 15 15 15 14 14 14 14 14 14 14 13 13 13 13 12 12 12 12 12
16 16 16 16 16 16 16 16 16 16 16 16 16 16 16 16 16 15 15 15 15 15 15 15 15 15 14 14 14 14 14 14 13 13 13 13 13 12 12 12 12 12 12
15 15 15 15 15 15 15 15 16 16 16 16 16 16 15 15 15 15 15 15 15 15 15 15 14 14 14 14 14 13 13 13 13 13 13 12 12 12 12 11 11 11 11
14 15 15 15 15 15 15 15 15 15 15 15 15 15 15 15 15 15 15 15 15 15 14 14 14 14 14 14 14 13 13 13 13 13 12 12 12 11 11 11 11 11 11
14 14 15 15 15 15 15 15 15 15 15 15 15 15 15 15 15 15 15 15 14 14 14 14 14 14 14 14 13 13 13 13 12 12 12 12 11 11 11 11 11 11 11
14 14 14 14 14 14 15 15 15 15 15 15 15 15 15 14 14 14 14 14 14 14 14 14 14 14 14 13 13 13 12 12 12 12 12 11 11 11 11 11 10 10 10
13 14 14 14 14 14 14 14 14 14 14 14 14 14 14 14 14 14 14 14 14 14 14 14 13 13 13 13 13 12 12 12 12 12 11 11 11 10 10 10 10 10 10
13 13 14 14 14 14 14 14 14 14 14 14 14 14 14 14 14 14 14 14 14 14 14 13 13 13 13 13 12 12 12 12 11 11 11 10 10 10 10 10 10 10 10
13 13 13 13 13 13 14 14 14 14 14 14 14 14 14 14 14 14 14 14 13 13 13 13 13 13 12 12 12 12 12 11 11 10 10 10 10 10 9 9 9 9 9
12 12 13 13 13 13 13 13 13 13 13 13 13 13 13 13 13 13 13 13 13 13 13 13 12 12 12 12 12 11 11 11 10 10 10 10 9 9 9 9 9 9 8
12 12 12 12 13 13 13 13 13 13 13 13 13 13 13 13 13 13 13 13 13 13 12 12 12 12 12 12 11 11 11 10 10 10 9 9 9 9 9 9 9 8 8
12 12 12 12 12 12 12 12 12 13 13 12 12 12 12 12 12 12 12 12 12 12 12 12 12 11 11 11 11 11 10 10 9 9 9 9 9 9 9 9 8 8 8
12 11 12 12 12 12 12 12 12 12 12 12 12 12 12 12 12 12 12 12 12 12 12 11 11 11 11 11 11 10 10 9 9 9 9 8 8 8 8 8 8 8 8
11 11 11 11 11 11 11 12 11 12 12 12 12 12 11 11 11 12 12 11 11 11 11 11 11 11 10 10 10 10 9 9 9 8 8 8 8 8 8 8 8 8 7
11 11 11 11 11 11 11 11 11 11 11 11 11 11 11 11 11 11 11 11 11 11 11 11 10 10 10 10 10 9 9 9 8 8 8 8 8 8 7 7 7 7 7
10 10 10 10 11 11 11 11 11 11 11 11 11 11 11 11 11 11 11 11 11 11 10 10 10 10 9 9 9 9 8 8 8 8 8 8 7 7 7 7 7 7 7
10 10 10 10 10 10 10 10 10 10 10 10 10 10 10 10 10 10 10 10 10 10 10 10 9 9 9 9 9 8 8 8 8 8 8 7 7 7 7 7 7 6 6
9 9 10 10 10 10 10 10 10 10 10 10 10 10 10 10 10 10 10 10 10 10 10 9 9 9 9 9 8 8 8 7 7 7 7 7 7 7 7 6 6 6 6
9 9 9 9 9 9 9 9 9 9 10 10 10 10 10 9 9 9 9 9 9 9 9 9 9 9 8 8 8 8 8 7 7 6 6 7 7 7 6 6 6 6 5
8 8 9 9 9 9 9 9 9 9 9 9 9 9 9 9 9 9 9 9 9 9 9 8 8 8 8 8 8 7 7 7 7 6 6 6 6 7 6 6 5 5 5
Wind_Speed
6 9 16 17 16 17 17 17 17 17 17 17 16 16 16 16 15 15 15 14 14 14 14 14 14 13 13 13 13 13 13 13 12 12 12 12 12 11 11 11 10 10 11
10 13 18 18 18 18 18 17 17 17 16 16 16 15 15 15 15 15 14 14 14 13 13 13 13 13 13 13 13 13 13 12 12 12 12 11 11 11 10 10 10 9 10
12 14 17 18 18 18 18 17 17 16 16 15 15 15 14 14 14 14 14 14 14 13 13 13 13 12 12 12 12 12 12 12 12 12 11 10 9 10 10 9 9 9 8
13 14 16 19 18 18 18 17 17 16 16 15 15 14 14 14 14 14 13 13 13 13 13 13 12 12 12 11 11 11 11 11 11 11 10 9 8 8 9 9 8 8 8
11 13 16 19 18 18 17 17 16 15 15 15 14 14 13 13 13 13 13 13 13 12 12 12 12 11 11 11 11 11 11 10 11 11 10 9 8 7 8 8 8 8 8
10 12 16 18 18 18 17 16 16 15 14 14 14 13 13 13 13 13 12 12 12 12 11 11 11 11 10 10 10 10 10 10 11 10 9 8 7 7 8 8 8 8 8
10 12 15 18 17 17 16 16 15 15 14 14 13 13 13 13 12 12 11 11 11 11 11 10 10 10 10 10 10 10 10 10 11 10 9 8 7 7 8 8 8 8 9
10 10 14 17 17 16 16 15 15 14 14 13 13 12 12 12 12 11 11 11 10 10 10 10 9 9 9 9 9 10 10 10 9 9 8 8 7 8 9 9 9 9 9
9 9 10 13 15 15 15 15 14 14 13 13 13 12 11 11 11 10 10 10 10 10 10 10 10 10 9 9 9 10 10 10 9 8 7 7 7 8 8 9 9 9 9
7 7 8 10 11 12 12 14 14 13 13 13 12 12 12 11 11 10 9 9 9 9 10 10 10 10 10 10 9 9 9 9 9 8 7 7 8 9 9 10 9 9 9
7 6 7 8 9 10 11 12 13 13 12 12 12 12 12 11 10 9 10 10 9 9 9 9 9 9 10 10 9 9 9 8 8 8 7 8 8 9 9 9 9 9 9
8 6 6 7 7 8 8 10 10 10 11 11 11 12 11 11 10 9 10 10 9 9 9 9 9 9 9 9 9 9 8 8 8 7 7 8 9 9 10 10 10 10 10
8 7 6 6 7 8 7 8 8 8 9 10 11 11 11 10 9 9 9 9 9 9 9 8 9 8 8 8 7 7 7 7 7 7 7 8 8 9 10 10 10 10 10
6 5 5 5 6 7 7 7 7 7 7 7 9 11 10 7 6 6 6 7 7 7 7 7 6 7 7 7 6 6 6 6 6 6 7 8 8 8 9 10 10 10 10
6 5 5 5 6 6 6 6 6 6 6 7 8 9 10 7 5 6 5 6 6 6 6 5 5 5 5 5 5 6 5 5 6 6 7 9 9 9 9 10 9 9 10
6 5 4 5 5 6 5 5 5 6 7 7 7 9 9 9 7 6 5 5 5 5 5 5 5 4 4 4 4 5 5 5 6 6 7 8 9 10 10 9 10 10 10
6 5 5 5 5 5 5 5 5 6 7 6 7 8 9 9 8 7 5 4 4 5 6 6 5 5 4 4 3 3 4 4 5 5 7 8 8 9 10 10 10 10 10
5 5 5 4 4 4 5 4 4 5 6 5 7 8 8 9 9 7 5 3 5 6 5 4 3 3 3 3 2 2 3 4 4 5 6 7 8 8 9 10 10 10 11
6 5 5 4 4 4 4 5 5 5 5 5 5 6 7 8 9 8 5 4 6 5 4 3 3 2 2 2 2 2 3 3 3 4 5 6 7 7 8 8 9 10 11
4 4 4 4 4 4 4 4 3 4 3 3 4 5 7 8 8 8 6 5 6 4 3 3 3 3 2 2 2 3 3 2 2 2 3 4 6 7 7 7 8 8 11
3 4 4 4 4 4 3 3 3 2 2 2 2 4 6 7 8 7 5 5 4 3 3 4 3 3 3 2 2 2 3 2 2 1 2 3 4 5 6 6 6 7 8
3 4 4 5 5 4 3 2 2 3 2 2 2 3 4 6 7 7 6 4 4 4 4 3 3 2 2 2 2 2 2 3 2 2 2 1 2 4 4 5 5 6 8
2 3 4 4 4 3 3 3 3 3 2 2 1 1 2 4 6 6 6 5 4 4 4 4 4 4 3 1 2 3 2 2 2 2 2 2 2 2 3 4 4 6 8
1 1 2 3 3 3 4 4 5 4 3 3 3 3 2 4 5 5 6 6 5 4 4 4 3 3 4 2 1 2 2 2 1 2 3 2 3 2 3 3 4 5 8
0 0 1 2 3 3 4 5 5 3 2 2 3 3 3 2 3 5 5 5 4 3 3 4 3 3 3 3 2 1 2 2 1 1 3 4 3 3 2 3 3 4 7
2 1 1 2 2 2 3 3 4 4 4 4 4 4 3 2 2 3 5 4 4 3 4 3 3 4 3 3 2 2 2 2 1 1 2 3 4 3 3 3 2 3 7
Wind_Direction
166 163 156 147 143 138 134 130 126 123 121 120 118 116 114 112 109 106 103 99 96 93 92 90 89 87 85 83 81 78 76 74 72 70 69 69 69 68 67 67 66 62 60
152 156 152 147 144 139 135 131 127 125 124 122 121 118 115 113 110 107 104 100 97 94 91 90 89 87 86 84 81 79 75 73 71 68 64 62 64 67 67 65 65 63 59
145 151 149 147 144 140 135 132 129 128 126 124 122 120 117 114 111 108 104 100 97 93 91 90 88 86 85 83 82 78 74 74 72 67 59 52 55 63 65 62 60 57 54
143 146 147 147 144 140 136 133 131 130 129 127 124 121 118 115 112 108 105 101 97 93 90 88 87 85 83 82 82 79 75 74 69 63 54 47 48 57 60 57 52 50 48
139 142 146 146 144 141 138 135 133 131 129 128 126 123 119 117 113 109 105 103 100 96 91 87 85 84 83 80 80 79 76 75 69 62 53 45 42 49 55 54 50 48 44
137 138 145 146 145 142 140 137 135 133 132 130 127 125 122 119 115 111 107 105 102 99 95 90 86 85 84 80 77 76 75 72 68 60 53 45 41 49 56 53 49 45 41
138 137 144 145 145 143 141 139 137 135 134 132 129 126 125 122 118 115 111 109 105 101 96 93 89 87 84 78 76 76 75 71 66 58 51 44 43 51 53 49 45 42 38
135 134 143 146 145 144 142 141 139 139 137 135 131 128 127 125 121 117 114 111 108 103 99 94 90 87 83 79 77 79 77 73 67 57 48 41 45 50 50 47 44 41 35
126 129 134 141 143 144 144 143 141 140 139 136 133 130 126 126 123 118 115 113 110 102 98 93 87 85 83 82 81 81 77 73 66 54 45 37 43 48 48 44 40 35 31
122 126 127 130 134 136 140 144 142 141 139 136 131 125 121 118 116 113 109 107 106 101 97 93 89 86 83 84 83 80 77 69 61 51 41 41 46 47 45 42 37 31 29
131 130 128 129 129 132 137 143 140 138 136 132 126 123 116 108 104 103 104 104 104 102 98 94 91 88 84 81 81 81 75 67 62 51 41 43 47 47 43 40 36 30 26
152 145 138 138 134 131 133 132 129 129 129 126 125 121 114 109 105 103 101 100 100 100 97 91 87 84 80 76 74 76 72 67 62 49 44 49 48 45 44 39 35 30 27
157 150 145 141 136 133 128 129 126 127 125 124 128 126 120 110 105 100 94 91 90 88 84 83 76 74 76 76 74 73 73 69 60 49 44 49 46 47 44 40 36 31 26
146 147 144 138 136 134 131 133 134 132 130 130 135 135 127 114 106 101 94 91 88 87 83 78 77 76 76 77 81 79 73 68 59 50 43 46 48 46 42 39 35 30 23
152 148 148 141 138 135 132 133 134 135 137 139 139 141 139 129 123 113 101 96 93 94 91 84 82 78 74 71 74 79 75 67 65 59 48 46 45 44 42 35 31 27 22
163 159 151 151 142 138 136 135 138 136 139 140 143 148 145 138 131 124 113 103 97 99 100 97 93 89 80 78 72 72 76 74 71 65 54 47 43 41 35 30 28 24 18
168 160 156 152 142 142 137 134 136 138 141 140 144 149 147 142 138 131 124 113 109 111 104 95 85 80 79 72 69 68 72 71 71 65 56 49 44 40 34 31 26 20 15
161 161 159 152 145 144 137 129 124 135 138 140 144 147 148 146 143 132 126 123 122 115 105 103 93 78 68 68 65 54 60 62 61 61 57 51 44 38 31 28 25 20 14
169 164 160 145 149 139 127 124 117 122 128 133 140 143 148 147 146 137 132 127 125 109 102 105 89 95 87 65 64 56 43 49 49 57 53 45 39 35 28 23 22 18 11
163 160 156 139 138 127 115 109 106 103 106 115 128 144 150 148 148 139 129 127 124 114 105 100 99 76 88 83 72 51 28 26 42 48 42 36 31 25 21 19 18 9 3
147 159 165 152 151 144 141 145 149 152 143 136 125 140 146 145 148 143 136 132 129 131 131 124 112 92 63 58 74 36 10 21 33 24 30 32 22 12 13 13 11 5 357
164 172 179 174 170 169 165 162 163 148 145 143 123 128 146 149 152 155 148 147 140 135 127 126 120 105 73 50 97 94 10 345 348 2 358 4 358 2 4 359 1 1 358
172 185 188 184 176 171 146 124 106 93 91 118 136 170 161 158 154 151 151 146 149 150 154 153 142 129 133 57 60 116 129 239 300 319 323 341 341 340 339 345 355 357 358
231 194 166 170 168 169 155 157 159 172 179 191 178 179 169 158 156 153 150 147 151 153 157 162 150 142 142 147 76 51 105 148 154 310 312 317 323 311 310 333 339 346 352
341 130 146 152 155 163 171 172 172 176 170 145 147 159 166 162 160 158 155 150 149 150 152 149 143 142 146 150 147 129 91 66 92 171 287 313 323 301 300 303 317 335 343
30 58 105 132 145 155 167 174 175 174 162 155 165 172 174 179 175 167 158 152 153 149 153 156 151 150 145 137 137 135 139 143 168 174 248 295 304 302 307 298 305 326 340
Height
1507 1510 1513 1516 1518 1520 1522 1524 1526 1527 1529 1530 1532 1533 1534 1535 1536 1537 1538 1539 1539 1540 1540 1541 1541 1541 1541 1542 1542 1542 1542 1542 1542 1542 1542 1542 1542 1542 1542 1542 1542 1541 1541
1505 1509 1512 1515 1518 1520 1523 1525 1526 1528 1529 1531 1532 1534 1535 1536 1537 1538 1538 1539 1540 1540 1541 1541 1541 1542 1542 1542 1542 1542 1543 1543 1542 1542 1542 1542 1542 1542 1542 1542 1542 1542 1541
1505 1508 1512 1515 1518 1520 1523 1525 1527 1528 1530 1531 1533 1534 1535 1536 1537 1538 1539 1540 1540 1541 1541 1542 1542 1542 1542 1543 1543 1543 1543 1543 1543 1543 1543 1542 1542 1542 1542 1542 1542 1542 1541
1505 1508 1511 1515 1518 1520 1523 1525 1527 1529 1530 1532 1533 1535 1536 1537 1538 1539 1539 1540 1541 1541 1542 1542 1542 1543 1543 1543 1543 1543 1543 1543 1543 1543 1543 1543 1543 1542 1542 1542 1542 1541 1541
1505 1508 1512 1515 1518 1520 1523 1525 1527 1529 1531 1532 1534 1535 1536 1537 1538 1539 1540 1540 1541 1541 1542 1542 1543 1543 1543 1543 1543 1543 1543 1543 1543 1543 1543 1543 1542 1542 1542 1542 1541 1541 1540
1505 1508 1512 1515 1518 1520 1523 1525 1527 1529 1531 1532 1534 1535 1536 1537 1538 1539 1540 1540 1541 1542 1542 1542 1543 1543 1543 1543 1543 1543 1543 1543 1543 1543 1543 1542 1542 1542 1542 1541 1541 1540 1540
1505 1508 1512 1515 1518 1520 1523 1525 1527 1529 1531 1532 1534 1535 1536 1537 1538 1539 1540 1541 1541 1542 1542 1542 1543 1543 1543 1543 1543 1543 1543 1543 1543 1542 1542 1542 1542 1542 1541 1541 1540 1540 1539
1505 1508 1512 1515 1517 1520 1523 1525 1527 1529 1530 1532 1534 1535 1536 1537 1538 1539 1540 1541 1541 1542 1542 1542 1542 1543 1543 1543 1543 1543 1542 1542 1542 1542 1542 1542 1542 1541 1541 1541 1540 1539 1538
1506 1508 1511 1514 1517 1520 1522 1524 1527 1528 1530 1532 1533 1535 1536 1537 1538 1539 1540 1540 1541 1541 1542 1542 1542 1542 1542 1542 1542 1542 1542 1542 1542 1542 1542 1541 1541 1541 1540 1540 1539 1538 1537
1506 1509 1511 1514 1516 1519 1521 1524 1526 1528 1530 1531 1533 1534 1535 1537 1538 1539 1539 1540 1541 1541 1542 1542 1542 1542 1542 1542 1542 1542 1542 1542 1542 1542 1541 1541 1541 1540 1539 1538 1538 1537 1536
1505 1508 1511 1513 1516 1518 1521 1523 1525 1527 1529 1531 1532 1533 1535 1536 1537 1538 1539 1540 1540 1541 1541 1541 1541 1541 1541 1541 1541 1541 1541 1541 1541 1541 1541 1541 1540 1539 1538 1537 1536 1535 1534
1503 1506 1509 1512 1514 1517 1519 1522 1524 1526 1528 1529 1531 1532 1534 1535 1536 1537 1538 1539 1539 1540 1540 1541 1541 1541 1541 1541 1541 1541 1541 1541 1541 1540 1540 1540 1539 1538 1537 1536 1535 1534 1533
1502 1505 1508 1510 1513 1515 1518 1520 1522 1524 1526 1528 1530 1531 1533 1534 1535 1536 1537 1538 1539 1539 1539 1540 1540 1540 1540 1540 1540 1540 1540 1540 1540 1540 1539 1539 1538 1537 1536 1535 1534 1532 1531
1501 1503 1506 1509 1511 1514 1516 1518 1520 1522 1524 1526 1528 1530 1531 1533 1534 1535 1536 1537 1537 1538 1538 1539 1539 1539 1540 1540 1539 1539 1539 1539 1539 1539 1539 1538 1537 1536 1535 1534 1532 1531 1530
1500 1502 1505 1507 1510 1512 1514 1517 1519 1521 1523 1525 1527 1528 1530 1531 1533 1534 1535 1536 1536 1537 1537 1538 1538 1539 1539 1539 1539 1538 1538 1538 1538 1538 1538 1537 1537 1535 1534 1533 1531 1530 1528
1499 1501 1503 1506 1508 1511 1513 1515 1517 1519 1521 1523 1525 1527 1529 1530 1531 1532 1533 1534 1535 1536 1536 1537 1537 1537 1538 1538 1538 1538 1538 1538 1537 1537 1537 1536 1536 1534 1533 1532 1530 1529 1527
1498 1500 1502 1504 1507 1509 1511 1513 1515 1517 1519 1521 1523 1525 1527 1528 1530 1531 1532 1533 1533 1534 1535 1535 1536 1536 1537 1537 1537 1537 1537 1537 1537 1536 1536 1535 1535 1533 1532 1531 1529 1527 1526
1496 1499 1501 1503 1505 1507 1509 1511 1513 1515 1517 1519 1521 1523 1525 1526 1528 1529 1530 1531 1532 1533 1533 1534 1534 1535 1535 1535 1535 1535 1536 1536 1536 1536 1535 1534 1533 1532 1531 1529 1528 1526 1524
1495 1497 1499 1501 1503 1505 1507 1510 1512 1514 1515 1517 1519 1521 1523 1524 1526 1527 1528 1529 1530 1531 1532 1532 1533 1533 1534 1534 1534 1534 1534 1535 1534 1534 1534 1533 1532 1531 1530 1528 1526 1524 1522
1494 1496 1497 1499 1501 1503 1505 1507 1509 1511 1513 1515 1516 1518 1520 1522 1524 1525 1526 1527 1528 1529 1530 1530 1531 1532 1532 1532 1532 1533 1533 1533 1533 1533 1533 1532 1531 1530 1528 1527 1525 1523 1520
1492 1494 1495 1497 1499 1501 1502 1504 1506 1508 1510 1511 1513 1516 1517 1519 1521 1523 1524 1525 1526 1527 1528 1529 1530 1530 1530 1531 1531 1531 1532 1532 1532 1531 1531 1530 1529 1528 1526 1525 1523 1521 1518
1489 1491 1493 1495 1497 1498 1500 1502 1504 1505 1507 1509 1511 1512 1515 1517 1518 1520 1522 1523 1524 1525 1526 1527 1528 1528 1528 1529 1529 1529 1530 1531 1530 1530 1529 1528 1527 1526 1524 1523 1521 1518 1516
1486 1488 1490 1492 1494 1496 1498 1499 1501 1503 1505 1507 1508 1510 1512 1514 1516 1518 1519 1520 1522 1523 1523 1525 1526 1526 1527 1527 1528 1529 1529 1528 1528 1527 1527 1526 1525 1524 1522 1521 1518 1516 1513
1483 1486 1487 1489 1491 1493 1495 1497 1498 1500 1501 1503 1505 1508 1509 1512 1514 1515 1517 1518 1519 1520 1521 1522 1524 1524 1525 1525 1526 1526 1527 1526 1526 1524 1524 1524 1523 1521 1520 1518 1516 1514 1511
1481 1483 1485 1486 1488 1490 1492 1494 1495 1497 1499 1501 1503 1506 1508 1509 1511 1513 1515 1516 1517 1518 1519 1520 1521 1522 1523 1523 1524 1524 1524 1524 1524 1523 1521 1520 1520 1519 1517 1516 1513 1511 1508
1479 1481 1482 1484 1486 1487 1489 1491 1492 1494 1496 1498 1500 1503 1505 1507 1508 1510 1512 1513 1515 1516 1517 1518 1519 1520 1521 1521 1522 1522 1522 1522 1522 1521 1519 1517 1516 1515 1514 1513 1511 1508 1505